TimePST,TemperatureF,Dew PointF,Humidity,Sea Level PressureIn,VisibilityMPH,Wind Direction,Wind SpeedMPH,Gust SpeedMPH,PrecipitationIn,Events,Conditions,WindDirDegrees,DateUTC
12:15 AM,53.6,53.6,100,29.83,10.0,NNE,8.1,-,N/A,,Clear,30,2013-11-15 08:15:00
12:35 AM,50.0,50.0,100,29.83,10.0,NNE,5.8,-,N/A,,Clear,20,2013-11-15 08:35:00
12:55 AM,51.8,51.8,100,29.83,10.0,NE,5.8,-,N/A,,Clear,50,2013-11-15 08:55:00
1:15 AM,48.2,48.2,100,29.82,9.0,East,4.6,-,N/A,,Clear,100,2013-11-15 09:15:00
1:35 AM,48.2,48.2,100,29.82,10.0,North,3.5,-,N/A,,Clear,360,2013-11-15 09:35:00
1:55 AM,46.4,46.4,100,29.81,10.0,North,-9999.0,-,N/A,,Clear,0,2013-11-15 09:55:00
2:15 AM,48.2,48.2,100,29.81,10.0,North,-9999.0,-,N/A,,Clear,0,2013-11-15 10:15:00
2:35 AM,46.4,46.4,100,29.80,10.0,North,-9999.0,-,N/A,,Clear,0,2013-11-15 10:35:00
2:55 AM,46.4,46.4,100,29.80,10.0,ENE,5.8,-,N/A,,Clear,70,2013-11-15 10:55:00
3:15 AM,46.4,46.4,100,29.79,10.0,NE,4.6,-,N/A,,Clear,50,2013-11-15 11:15:00
3:35 AM,46.4,46.4,100,29.79,9.0,North,3.5,-,N/A,,Clear,360,2013-11-15 11:35:00
3:55 AM,44.6,44.6,100,29.79,9.0,North,-9999.0,-,N/A,,Clear,0,2013-11-15 11:55:00
4:15 AM,46.4,46.4,100,29.79,10.0,NNE,4.6,-,N/A,,Clear,20,2013-11-15 12:15:00
4:35 AM,44.6,44.6,100,29.79,10.0,Calm,Calm,-,N/A,,Clear,0,2013-11-15 12:35:00
4:55 AM,46.4,46.4,100,29.78,10.0,North,-9999.0,-,N/A,,Clear,0,2013-11-15 12:55:00
5:15 AM,44.6,44.6,100,29.78,10.0,North,-9999.0,-,N/A,,Clear,0,2013-11-15 13:15:00
5:35 AM,44.6,44.6,100,29.79,10.0,North,-9999.0,-,N/A,,Clear,0,2013-11-15 13:35:00
5:55 AM,44.6,44.6,100,29.79,10.0,North,-9999.0,-,N/A,,Clear,0,2013-11-15 13:55:00
6:45 AM,44.6,44.6,100,29.79,10.0,NNW,11.5,-,N/A,,Clear,330,2013-11-15 14:45:00
7:50 AM,50.0,50.0,100,29.81,10.0,NNW,13.8,-,N/A,,Clear,330,2013-11-15 15:50:00
8:55 AM,55.4,46.4,72,29.81,10.0,NNW,17.3,-,N/A,,Clear,330,2013-11-15 16:55:00
9:45 AM,59.0,37.4,45,29.81,10.0,NNW,17.3,-,N/A,,Clear,330,2013-11-15 17:45:00
10:45 AM,62.6,35.6,37,29.80,10.0,NNW,17.3,-,N/A,,Clear,330,2013-11-15 18:45:00
11:45 AM,64.4,33.8,32,29.77,10.0,WNW,17.3,-,N/A,,Clear,300,2013-11-15 19:45:00
12:45 PM,66.2,35.6,32,29.74,10.0,NNW,17.3,-,N/A,,Clear,330,2013-11-15 20:45:00
1:45 PM,68.0,35.6,30,29.72,10.0,NNW,17.3,-,N/A,,Clear,330,2013-11-15 21:45:00
2:45 PM,66.2,35.6,32,29.72,10.0,North,13.8,-,N/A,,Clear,350,2013-11-15 22:45:00
3:45 PM,66.2,33.8,30,29.71,10.0,North,13.8,-,N/A,,Clear,350,2013-11-15 23:45:00
4:45 PM,60.8,33.8,36,29.73,10.0,NNW,8.1,-,N/A,,Clear,330,2013-11-16 00:45:00
5:45 PM,55.4,35.6,47,29.73,10.0,Calm,Calm,-,N/A,,Clear,0,2013-11-16 01:45:00
6:45 PM,48.2,37.4,66,29.74,10.0,Calm,Calm,-,N/A,,Clear,0,2013-11-16 02:45:00
7:50 PM,46.4,39.2,76,29.75,10.0,Calm,Calm,-,N/A,,Clear,0,2013-11-16 03:50:00
8:15 PM,44.6,37.4,76,29.75,10.0,Calm,Calm,-,N/A,,Clear,0,2013-11-16 04:15:00
8:35 PM,44.6,37.4,76,29.77,10.0,NNW,3.5,-,N/A,,Clear,330,2013-11-16 04:35:00
8:45 PM,46.4,37.4,71,29.78,10.0,NNW,5.8,-,N/A,,Clear,330,2013-11-16 04:45:00
8:55 PM,46.4,37.4,71,29.79,10.0,North,3.5,-,N/A,,Clear,360,2013-11-16 04:55:00
9:15 PM,44.6,37.4,76,29.78,10.0,Calm,Calm,-,N/A,,Clear,0,2013-11-16 05:15:00
9:35 PM,44.6,41.0,87,29.79,10.0,Calm,Calm,-,N/A,,Clear,0,2013-11-16 05:35:00
9:55 PM,44.6,39.2,81,29.78,10.0,Calm,Calm,-,N/A,,Clear,0,2013-11-16 05:55:00
10:15 PM,44.6,39.2,81,29.77,10.0,WSW,3.5,-,N/A,,Clear,240,2013-11-16 06:15:00
10:35 PM,42.8,41.0,93,29.78,10.0,Calm,Calm,-,N/A,,Clear,0,2013-11-16 06:35:00
10:55 PM,41.0,39.2,93,29.78,10.0,Calm,Calm,-,N/A,,Clear,0,2013-11-16 06:55:00
11:15 PM,39.2,39.2,100,29.78,10.0,Calm,Calm,-,N/A,,Clear,0,2013-11-16 07:15:00
11:35 PM,39.2,39.2,100,29.78,10.0,Calm,Calm,-,N/A,,Clear,0,2013-11-16 07:35:00
11:55 PM,39.2,39.2,100,29.77,10.0,SSE,4.6,-,N/A,,Clear,160,2013-11-16 07:55:00